Time,TemperatureF,DewpointF,PressureIn,WindDirection,WindDirectionDegrees,WindSpeedMPH,WindSpeedGustMPH,Humidity,HourlyPrecipIn,Conditions,Clouds,dailyrainin,SoftwareType,DateUTC
2013-03-06 00:00:00,39.5,38.2,29.68,West,281,0.0,0.0,95,0.00,,,0.00,WUHU216DAVISVP2,2013-03-06 08:00:00,
2013-03-06 00:05:00,39.4,38.0,29.68,West,281,0.0,0.0,95,0.00,,,0.00,WUHU216DAVISVP2,2013-03-06 08:05:00,
2013-03-06 00:10:00,39.4,38.0,29.68,West,281,0.0,0.0,95,0.00,,,0.00,WUHU216DAVISVP2,2013-03-06 08:10:00,
2013-03-06 00:15:00,39.4,38.0,29.68,West,281,0.0,0.0,95,0.00,,,0.00,WUHU216DAVISVP2,2013-03-06 08:15:00,
2013-03-06 00:20:00,39.3,38.2,29.68,West,281,0.0,0.0,96,0.00,,,0.00,WUHU216DAVISVP2,2013-03-06 08:20:00,
2013-03-06 00:25:00,39.3,37.9,29.67,West,281,0.0,0.0,95,0.00,,,0.00,WUHU216DAVISVP2,2013-03-06 08:25:00,
2013-03-06 00:30:00,39.3,37.9,29.67,West,281,0.0,0.0,95,0.00,,,0.00,WUHU216DAVISVP2,2013-03-06 08:30:00,
2013-03-06 00:35:00,39.3,37.9,29.67,West,281,0.0,0.0,95,0.00,,,0.00,WUHU216DAVISVP2,2013-03-06 08:35:00,
2013-03-06 00:40:00,39.2,37.8,29.66,West,281,0.0,0.0,95,0.00,,,0.00,WUHU216DAVISVP2,2013-03-06 08:40:00,
2013-03-06 00:45:00,39.1,37.7,29.66,West,281,0.0,0.0,95,0.00,,,0.00,WUHU216DAVISVP2,2013-03-06 08:45:00,
2013-03-06 00:50:00,39.0,37.6,29.66,West,281,0.0,0.0,95,0.00,,,0.00,WUHU216DAVISVP2,2013-03-06 08:50:00,
2013-03-06 00:55:00,38.9,37.5,29.66,West,281,0.0,0.0,95,0.00,,,0.00,WUHU216DAVISVP2,2013-03-06 08:55:00,
2013-03-06 01:00:00,38.9,37.9,29.65,West,281,0.0,0.0,96,0.00,,,0.00,WUHU216DAVISVP2,2013-03-06 09:00:00,
2013-03-06 01:05:00,38.8,37.8,29.66,West,281,0.0,0.0,96,0.00,,,0.00,WUHU216DAVISVP2,2013-03-06 09:05:00,
2013-03-06 01:10:00,38.8,37.8,29.65,West,281,0.0,0.0,96,0.00,,,0.00,WUHU216DAVISVP2,2013-03-06 09:10:00,
2013-03-06 01:15:00,38.8,37.8,29.65,West,281,0.0,0.0,96,0.00,,,0.00,WUHU216DAVISVP2,2013-03-06 09:15:00,
2013-03-06 01:20:00,38.7,37.7,29.65,West,281,0.0,0.0,96,0.00,,,0.00,WUHU216DAVISVP2,2013-03-06 09:20:00,
2013-03-06 01:25:00,38.8,37.7,29.65,West,281,0.0,1.0,96,0.00,,,0.00,WUHU216DAVISVP2,2013-03-06 09:25:00,
2013-03-06 01:30:00,38.7,37.6,29.65,West,281,0.0,1.0,96,0.00,,,0.00,WUHU216DAVISVP2,2013-03-06 09:30:00,
2013-03-06 01:35:00,38.8,37.7,29.64,West,281,0.0,1.0,96,0.00,,,0.00,WUHU216DAVISVP2,2013-03-06 09:35:00,
2013-03-06 01:40:00,38.7,37.6,29.64,West,281,0.0,1.0,96,0.00,,,0.00,WUHU216DAVISVP2,2013-03-06 09:40:00,
2013-03-06 01:45:00,38.8,37.7,29.64,West,281,0.0,1.0,96,0.00,,,0.00,WUHU216DAVISVP2,2013-03-06 09:45:00,
2013-03-06 01:50:00,38.8,37.7,29.63,West,281,0.0,1.0,96,0.00,,,0.00,WUHU216DAVISVP2,2013-03-06 09:50:00,
2013-03-06 01:55:00,38.7,37.6,29.63,West,281,0.0,1.0,96,0.00,,,0.00,WUHU216DAVISVP2,2013-03-06 09:55:00,
2013-03-06 02:00:00,38.8,37.7,29.63,West,281,0.0,1.0,96,0.00,,,0.00,WUHU216DAVISVP2,2013-03-06 10:00:00,
2013-03-06 02:05:00,38.7,37.6,29.63,West,281,0.0,0.0,96,0.00,,,0.00,WUHU216DAVISVP2,2013-03-06 10:05:00,
2013-03-06 02:10:00,38.7,37.6,29.62,West,281,0.0,0.0,96,0.00,,,0.00,WUHU216DAVISVP2,2013-03-06 10:10:00,
2013-03-06 02:15:00,38.7,37.6,29.62,West,281,1.0,2.0,96,0.00,,,0.00,WUHU216DAVISVP2,2013-03-06 10:15:00,
2013-03-06 02:20:00,38.7,37.6,29.62,SW,236,0.0,2.0,96,0.00,,,0.00,WUHU216DAVISVP2,2013-03-06 10:20:00,
2013-03-06 02:25:00,38.6,37.5,29.62,SW,236,0.0,2.0,96,0.00,,,0.00,WUHU216DAVISVP2,2013-03-06 10:25:00,
2013-03-06 02:30:00,38.6,37.5,29.62,SW,236,0.0,2.0,96,0.00,,,0.00,WUHU216DAVISVP2,2013-03-06 10:30:00,
2013-03-06 02:35:00,38.6,37.5,29.61,SW,236,0.0,2.0,96,0.00,,,0.00,WUHU216DAVISVP2,2013-03-06 10:35:00,
2013-03-06 02:40:00,38.6,37.8,29.61,SW,236,0.0,1.0,97,0.00,,,0.00,WUHU216DAVISVP2,2013-03-06 10:40:00,
2013-03-06 02:45:00,38.6,37.5,29.61,SW,236,0.0,0.0,96,0.00,,,0.00,WUHU216DAVISVP2,2013-03-06 10:45:00,
2013-03-06 02:50:00,38.5,37.7,29.61,SW,236,0.0,0.0,97,0.00,,,0.00,WUHU216DAVISVP2,2013-03-06 10:50:00,
2013-03-06 02:55:00,38.4,37.6,29.61,SW,236,0.0,0.0,97,0.00,,,0.00,WUHU216DAVISVP2,2013-03-06 10:55:00,
2013-03-06 03:00:00,38.4,37.6,29.60,SW,236,0.0,1.0,97,0.00,,,0.00,WUHU216DAVISVP2,2013-03-06 11:00:00,
2013-03-06 03:05:00,38.4,37.6,29.60,SW,236,0.0,1.0,97,0.00,,,0.00,WUHU216DAVISVP2,2013-03-06 11:05:00,
2013-03-06 03:10:00,38.3,37.5,29.60,SW,236,0.0,0.0,97,0.00,,,0.00,WUHU216DAVISVP2,2013-03-06 11:10:00,
2013-03-06 03:15:00,38.3,37.5,29.60,SW,236,0.0,2.0,97,0.00,,,0.00,WUHU216DAVISVP2,2013-03-06 11:15:00,
2013-03-06 03:20:00,38.3,37.5,29.60,SW,236,0.0,2.0,97,0.00,,,0.00,WUHU216DAVISVP2,2013-03-06 11:20:00,
2013-03-06 03:25:00,38.2,37.4,29.60,SW,236,0.0,1.0,97,0.00,,,0.00,WUHU216DAVISVP2,2013-03-06 11:25:00,
2013-03-06 03:31:00,38.2,37.4,29.59,SW,236,0.0,0.0,97,0.00,,,0.00,WUHU216DAVISVP2,2013-03-06 11:31:00,
2013-03-06 03:37:00,38.2,37.4,29.59,SW,236,0.0,1.0,97,0.00,,,0.00,WUHU216DAVISVP2,2013-03-06 11:37:00,
2013-03-06 03:43:00,38.2,37.4,29.59,SW,236,0.0,0.0,97,0.00,,,0.00,WUHU216DAVISVP2,2013-03-06 11:43:00,
2013-03-06 03:49:00,38.2,37.4,29.58,SW,236,0.0,1.0,97,0.00,,,0.00,WUHU216DAVISVP2,2013-03-06 11:49:00,
2013-03-06 03:55:00,38.1,37.3,29.58,SW,236,0.0,1.0,97,0.00,,,0.00,WUHU216DAVISVP2,2013-03-06 11:55:00,
2013-03-06 04:01:00,38.1,37.3,29.58,SW,236,1.0,1.0,97,0.00,,,0.00,WUHU216DAVISVP2,2013-03-06 12:01:00,
2013-03-06 04:07:00,38.1,37.3,29.58,SW,236,0.0,1.0,97,0.00,,,0.00,WUHU216DAVISVP2,2013-03-06 12:07:00,
2013-03-06 04:13:00,38.1,37.3,29.58,SW,236,0.0,1.0,97,0.00,,,0.00,WUHU216DAVISVP2,2013-03-06 12:13:00,
2013-03-06 04:19:00,38.1,37.3,29.57,SW,236,0.0,0.0,97,0.00,,,0.00,WUHU216DAVISVP2,2013-03-06 12:19:00,
2013-03-06 04:25:00,38.1,37.3,29.57,SW,236,0.0,0.0,97,0.00,,,0.00,WUHU216DAVISVP2,2013-03-06 12:25:00,
2013-03-06 04:31:00,38.1,37.3,29.57,SW,236,1.0,2.0,97,0.00,,,0.00,WUHU216DAVISVP2,2013-03-06 12:31:00,
2013-03-06 04:37:00,38.0,37.2,29.57,SW,236,0.0,2.0,97,0.00,,,0.00,WUHU216DAVISVP2,2013-03-06 12:37:00,
2013-03-06 04:43:00,38.0,37.2,29.57,SW,236,0.0,1.0,97,0.00,,,0.00,WUHU216DAVISVP2,2013-03-06 12:43:00,
2013-03-06 04:49:00,38.0,37.2,29.56,SW,236,0.0,2.0,97,0.00,,,0.00,WUHU216DAVISVP2,2013-03-06 12:49:00,
2013-03-06 04:55:00,38.0,37.2,29.57,WSW,238,0.0,2.0,97,0.00,,,0.00,WUHU216DAVISVP2,2013-03-06 12:55:00,
2013-03-06 05:01:00,38.0,37.2,29.56,WSW,238,0.0,1.0,97,0.00,,,0.00,WUHU216DAVISVP2,2013-03-06 13:01:00,
2013-03-06 05:07:00,38.1,37.3,29.56,WSW,238,0.0,0.0,97,0.00,,,0.00,WUHU216DAVISVP2,2013-03-06 13:07:00,
2013-03-06 05:13:00,38.1,37.3,29.56,WSW,238,0.0,2.0,97,0.00,,,0.00,WUHU216DAVISVP2,2013-03-06 13:13:00,
2013-03-06 05:19:00,38.0,37.2,29.56,WSW,238,0.0,2.0,97,0.00,,,0.00,WUHU216DAVISVP2,2013-03-06 13:19:00,
2013-03-06 05:25:00,38.0,37.2,29.56,WSW,238,0.0,0.0,97,0.00,,,0.00,WUHU216DAVISVP2,2013-03-06 13:25:00,
2013-03-06 05:40:00,38.1,37.3,29.56,WSW,238,0.0,1.0,97,0.00,,,0.00,WUHU216DAVISVP2,2013-03-06 13:40:00,
2013-03-06 05:45:00,38.1,37.3,29.56,WSW,240,0.0,2.0,97,0.00,,,0.00,WUHU216DAVISVP2,2013-03-06 13:45:00,
2013-03-06 05:50:00,38.1,37.3,29.56,WSW,240,1.0,2.0,97,0.00,,,0.00,WUHU216DAVISVP2,2013-03-06 13:50:00,
2013-03-06 05:55:00,38.1,37.3,29.56,SW,226,2.0,2.0,97,0.00,,,0.00,WUHU216DAVISVP2,2013-03-06 13:55:00,
2013-03-06 06:00:00,38.2,37.4,29.56,SW,226,2.0,2.0,97,0.00,,,0.00,WUHU216DAVISVP2,2013-03-06 14:00:00,
2013-03-06 06:05:00,38.2,37.4,29.56,SW,226,0.0,2.0,97,0.00,,,0.00,WUHU216DAVISVP2,2013-03-06 14:05:00,
2013-03-06 06:10:00,38.2,37.4,29.56,SW,225,2.0,3.0,97,0.00,,,0.00,WUHU216DAVISVP2,2013-03-06 14:10:00,
2013-03-06 06:15:00,38.2,37.4,29.56,SW,221,0.0,3.0,97,0.01,,,0.01,WUHU216DAVISVP2,2013-03-06 14:15:00,
2013-03-06 06:20:00,38.2,37.4,29.56,SW,221,0.0,3.0,97,0.01,,,0.01,WUHU216DAVISVP2,2013-03-06 14:20:00,
2013-03-06 06:25:00,38.2,37.4,29.56,WSW,252,1.0,2.0,97,0.01,,,0.01,WUHU216DAVISVP2,2013-03-06 14:25:00,
2013-03-06 06:30:00,38.2,37.4,29.56,WSW,252,0.0,2.0,97,0.01,,,0.01,WUHU216DAVISVP2,2013-03-06 14:30:00,
2013-03-06 06:35:00,38.2,37.4,29.56,WSW,252,0.0,2.0,97,0.01,,,0.01,WUHU216DAVISVP2,2013-03-06 14:35:00,
2013-03-06 06:40:00,38.2,37.7,29.56,WSW,252,0.0,1.0,98,0.01,,,0.01,WUHU216DAVISVP2,2013-03-06 14:40:00,
2013-03-06 06:45:00,38.1,37.3,29.56,WSW,252,0.0,1.0,97,0.01,,,0.01,WUHU216DAVISVP2,2013-03-06 14:45:00,
2013-03-06 06:50:00,38.2,37.7,29.56,WSW,252,0.0,0.0,98,0.01,,,0.01,WUHU216DAVISVP2,2013-03-06 14:50:00,
2013-03-06 06:55:00,38.2,37.7,29.56,WSW,252,0.0,0.0,98,0.01,,,0.01,WUHU216DAVISVP2,2013-03-06 14:55:00,
2013-03-06 07:00:00,38.2,37.7,29.56,WSW,252,0.0,1.0,98,0.01,,,0.01,WUHU216DAVISVP2,2013-03-06 15:00:00,
2013-03-06 07:05:00,38.2,37.7,29.56,WSW,252,0.0,1.0,98,0.01,,,0.01,WUHU216DAVISVP2,2013-03-06 15:05:00,
2013-03-06 07:10:00,38.2,37.7,29.56,WSW,252,0.0,1.0,98,0.01,,,0.01,WUHU216DAVISVP2,2013-03-06 15:10:00,
2013-03-06 07:15:00,38.2,37.4,29.56,WSW,252,0.0,0.0,97,0.00,,,0.01,WUHU216DAVISVP2,2013-03-06 15:15:00,
2013-03-06 07:20:00,38.2,37.7,29.57,WSW,252,0.0,0.0,98,0.00,,,0.01,WUHU216DAVISVP2,2013-03-06 15:20:00,
2013-03-06 07:25:00,38.2,37.7,29.56,WSW,252,0.0,0.0,98,0.00,,,0.01,WUHU216DAVISVP2,2013-03-06 15:25:00,
2013-03-06 07:30:00,38.3,37.8,29.56,WSW,252,0.0,0.0,98,0.00,,,0.01,WUHU216DAVISVP2,2013-03-06 15:30:00,
2013-03-06 07:35:00,38.3,37.8,29.56,WSW,252,0.0,0.0,98,0.01,,,0.02,WUHU216DAVISVP2,2013-03-06 15:35:00,
2013-03-06 07:40:00,38.3,37.8,29.56,WSW,252,0.0,0.0,98,0.01,,,0.02,WUHU216DAVISVP2,2013-03-06 15:40:00,
2013-03-06 07:45:00,38.4,37.6,29.56,WSW,252,0.0,0.0,97,0.01,,,0.02,WUHU216DAVISVP2,2013-03-06 15:45:00,
2013-03-06 07:50:00,38.4,37.9,29.56,WSW,252,0.0,0.0,98,0.01,,,0.02,WUHU216DAVISVP2,2013-03-06 15:50:00,
2013-03-06 07:55:00,38.4,37.6,29.57,WSW,252,0.0,0.0,97,0.01,,,0.02,WUHU216DAVISVP2,2013-03-06 15:55:00,
2013-03-06 08:00:00,38.4,37.6,29.57,WSW,252,0.0,0.0,97,0.01,,,0.02,WUHU216DAVISVP2,2013-03-06 16:00:00,
2013-03-06 08:05:00,38.4,37.6,29.57,WSW,252,0.0,0.0,97,0.01,,,0.02,WUHU216DAVISVP2,2013-03-06 16:05:00,
2013-03-06 08:10:00,38.5,37.7,29.57,WSW,252,0.0,0.0,97,0.01,,,0.02,WUHU216DAVISVP2,2013-03-06 16:10:00,
2013-03-06 08:15:00,38.5,38.0,29.57,WSW,252,0.0,0.0,98,0.01,,,0.02,WUHU216DAVISVP2,2013-03-06 16:15:00,
2013-03-06 08:20:00,38.6,37.8,29.57,WSW,252,0.0,0.0,97,0.02,,,0.03,WUHU216DAVISVP2,2013-03-06 16:20:00,
2013-03-06 08:25:00,38.6,37.8,29.57,WSW,252,0.0,0.0,97,0.02,,,0.03,WUHU216DAVISVP2,2013-03-06 16:25:00,
2013-03-06 08:30:00,38.7,37.9,29.57,WSW,252,0.0,0.0,97,0.02,,,0.03,WUHU216DAVISVP2,2013-03-06 16:30:00,
2013-03-06 08:35:00,38.7,38.2,29.57,WSW,252,0.0,0.0,98,0.01,,,0.03,WUHU216DAVISVP2,2013-03-06 16:35:00,
2013-03-06 08:40:00,38.8,38.3,29.57,WSW,252,0.0,0.0,98,0.01,,,0.03,WUHU216DAVISVP2,2013-03-06 16:40:00,
2013-03-06 08:45:00,38.8,38.3,29.57,WSW,252,0.0,0.0,98,0.01,,,0.03,WUHU216DAVISVP2,2013-03-06 16:45:00,
2013-03-06 08:50:00,38.9,38.4,29.57,WSW,252,0.0,1.0,98,0.01,,,0.03,WUHU216DAVISVP2,2013-03-06 16:50:00,
2013-03-06 08:55:00,38.9,38.4,29.57,WSW,252,0.0,1.0,98,0.01,,,0.03,WUHU216DAVISVP2,2013-03-06 16:55:00,
2013-03-06 09:00:00,39.0,38.5,29.57,WSW,252,0.0,0.0,98,0.01,,,0.03,WUHU216DAVISVP2,2013-03-06 17:00:00,
2013-03-06 09:05:00,39.0,38.2,29.57,WSW,252,0.0,1.0,97,0.01,,,0.03,WUHU216DAVISVP2,2013-03-06 17:05:00,
2013-03-06 09:10:00,39.0,38.2,29.57,WSW,252,0.0,1.0,97,0.01,,,0.03,WUHU216DAVISVP2,2013-03-06 17:10:00,
2013-03-06 09:15:00,39.0,38.2,29.57,WSW,252,0.0,1.0,97,0.01,,,0.03,WUHU216DAVISVP2,2013-03-06 17:15:00,
2013-03-06 09:20:00,39.1,38.3,29.57,WSW,252,0.0,1.0,97,0.00,,,0.03,WUHU216DAVISVP2,2013-03-06 17:20:00,
2013-03-06 09:25:00,39.2,38.4,29.57,WSW,252,0.0,1.0,97,0.00,,,0.03,WUHU216DAVISVP2,2013-03-06 17:25:00,
2013-03-06 09:30:00,39.3,38.5,29.58,WSW,252,0.0,1.0,97,0.00,,,0.03,WUHU216DAVISVP2,2013-03-06 17:30:00,
2013-03-06 09:35:00,39.5,38.7,29.58,WSW,252,0.0,1.0,97,0.00,,,0.03,WUHU216DAVISVP2,2013-03-06 17:35:00,
2013-03-06 09:40:00,39.6,38.8,29.58,WSW,252,0.0,1.0,97,0.00,,,0.03,WUHU216DAVISVP2,2013-03-06 17:40:00,
2013-03-06 09:45:00,39.6,38.8,29.58,WSW,252,0.0,1.0,97,0.00,,,0.03,WUHU216DAVISVP2,2013-03-06 17:45:00,
2013-03-06 09:50:00,39.8,39.0,29.58,NNW,338,2.0,2.0,97,0.00,,,0.03,WUHU216DAVISVP2,2013-03-06 17:50:00,
2013-03-06 09:55:00,39.7,38.7,29.58,NW,325,1.0,2.0,96,0.01,,,0.04,WUHU216DAVISVP2,2013-03-06 17:55:00,
2013-03-06 10:00:00,39.6,38.5,29.58,NW,325,1.0,2.0,96,0.01,,,0.04,WUHU216DAVISVP2,2013-03-06 18:00:00,
2013-03-06 10:05:00,39.6,38.5,29.58,NW,325,0.0,2.0,96,0.01,,,0.04,WUHU216DAVISVP2,2013-03-06 18:05:00,
2013-03-06 10:10:00,39.7,38.6,29.58,NW,325,0.0,1.0,96,0.01,,,0.04,WUHU216DAVISVP2,2013-03-06 18:10:00,
2013-03-06 10:15:00,39.8,38.7,29.58,NW,325,0.0,0.0,96,0.01,,,0.04,WUHU216DAVISVP2,2013-03-06 18:15:00,
2013-03-06 10:20:00,40.0,38.9,29.58,NW,325,0.0,1.0,96,0.01,,,0.04,WUHU216DAVISVP2,2013-03-06 18:20:00,
2013-03-06 10:25:00,40.0,38.9,29.58,NW,317,0.0,1.0,96,0.01,,,0.04,WUHU216DAVISVP2,2013-03-06 18:25:00,
2013-03-06 10:30:00,40.0,38.9,29.59,NW,317,1.0,1.0,96,0.01,,,0.04,WUHU216DAVISVP2,2013-03-06 18:30:00,
2013-03-06 10:35:00,40.0,38.6,29.59,NW,317,0.0,1.0,95,0.02,,,0.05,WUHU216DAVISVP2,2013-03-06 18:35:00,
2013-03-06 10:40:00,40.1,39.0,29.59,NW,317,0.0,1.0,96,0.02,,,0.05,WUHU216DAVISVP2,2013-03-06 18:40:00,
2013-03-06 10:45:00,40.1,39.0,29.60,NW,317,0.0,1.0,96,0.02,,,0.05,WUHU216DAVISVP2,2013-03-06 18:45:00,
2013-03-06 10:50:00,40.1,38.7,29.60,WNW,298,0.0,2.0,95,0.02,,,0.05,WUHU216DAVISVP2,2013-03-06 18:50:00,
2013-03-06 10:55:00,40.1,38.7,29.60,WNW,298,0.0,2.0,95,0.01,,,0.05,WUHU216DAVISVP2,2013-03-06 18:55:00,
2013-03-06 11:00:00,40.1,38.7,29.60,WNW,298,0.0,2.0,95,0.01,,,0.05,WUHU216DAVISVP2,2013-03-06 19:00:00,
2013-03-06 11:05:00,40.1,38.7,29.60,WNW,298,0.0,1.0,95,0.01,,,0.05,WUHU216DAVISVP2,2013-03-06 19:05:00,
2013-03-06 11:10:00,40.2,38.8,29.61,WNW,298,0.0,1.0,95,0.01,,,0.05,WUHU216DAVISVP2,2013-03-06 19:10:00,
2013-03-06 11:15:00,40.2,38.8,29.61,WNW,298,0.0,1.0,95,0.01,,,0.05,WUHU216DAVISVP2,2013-03-06 19:15:00,
2013-03-06 11:20:00,40.2,38.8,29.61,WNW,298,0.0,0.0,95,0.02,,,0.06,WUHU216DAVISVP2,2013-03-06 19:20:00,
2013-03-06 11:25:00,40.3,38.9,29.61,WNW,298,0.0,1.0,95,0.02,,,0.06,WUHU216DAVISVP2,2013-03-06 19:25:00,
2013-03-06 11:30:00,40.4,39.0,29.61,WNW,298,0.0,1.0,95,0.02,,,0.06,WUHU216DAVISVP2,2013-03-06 19:30:00,
2013-03-06 11:35:00,40.4,39.0,29.62,WNW,298,0.0,1.0,95,0.02,,,0.07,WUHU216DAVISVP2,2013-03-06 19:35:00,
2013-03-06 11:40:00,40.4,39.0,29.62,WNW,298,0.0,1.0,95,0.02,,,0.07,WUHU216DAVISVP2,2013-03-06 19:40:00,
2013-03-06 11:45:00,40.4,39.0,29.62,SW,223,3.0,3.0,95,0.03,,,0.08,WUHU216DAVISVP2,2013-03-06 19:45:00,
2013-03-06 11:50:00,40.4,38.8,29.62,SW,223,0.0,3.0,94,0.03,,,0.08,WUHU216DAVISVP2,2013-03-06 19:50:00,
2013-03-06 11:55:00,40.5,39.1,29.62,SW,219,2.0,3.0,95,0.03,,,0.08,WUHU216DAVISVP2,2013-03-06 19:55:00,
2013-03-06 12:00:00,40.5,39.1,29.63,SW,229,1.0,4.0,95,0.04,,,0.09,WUHU216DAVISVP2,2013-03-06 20:00:00,
2013-03-06 12:05:00,40.4,39.0,29.63,SW,236,0.0,4.0,95,0.04,,,0.09,WUHU216DAVISVP2,2013-03-06 20:05:00,
2013-03-06 12:10:00,40.4,39.0,29.63,SW,236,0.0,3.0,95,0.04,,,0.09,WUHU216DAVISVP2,2013-03-06 20:10:00,
2013-03-06 12:15:00,40.4,39.0,29.63,SSW,196,1.0,3.0,95,0.05,,,0.10,WUHU216DAVISVP2,2013-03-06 20:15:00,
2013-03-06 12:20:00,40.3,38.7,29.64,SW,227,0.0,3.0,94,0.04,,,0.10,WUHU216DAVISVP2,2013-03-06 20:20:00,
2013-03-06 12:25:00,40.3,38.7,29.63,SSW,213,0.0,3.0,94,0.04,,,0.10,WUHU216DAVISVP2,2013-03-06 20:25:00,
2013-03-06 12:30:00,40.4,38.8,29.64,SSW,213,0.0,3.0,94,0.04,,,0.10,WUHU216DAVISVP2,2013-03-06 20:30:00,
2013-03-06 12:35:00,40.4,38.8,29.64,SSW,213,2.0,2.0,94,0.04,,,0.11,WUHU216DAVISVP2,2013-03-06 20:35:00,
2013-03-06 12:40:00,40.3,38.7,29.64,SSW,213,0.0,3.0,94,0.04,,,0.11,WUHU216DAVISVP2,2013-03-06 20:40:00,
2013-03-06 12:45:00,40.3,38.7,29.64,SSW,213,0.0,3.0,94,0.03,,,0.11,WUHU216DAVISVP2,2013-03-06 20:45:00,
2013-03-06 12:50:00,40.4,38.8,29.65,SSW,213,0.0,1.0,94,0.04,,,0.12,WUHU216DAVISVP2,2013-03-06 20:50:00,
2013-03-06 12:55:00,40.5,39.1,29.65,SSW,212,1.0,1.0,95,0.04,,,0.12,WUHU216DAVISVP2,2013-03-06 20:55:00,
2013-03-06 13:00:00,40.6,39.0,29.65,SSW,212,0.0,1.0,94,0.03,,,0.12,WUHU216DAVISVP2,2013-03-06 21:00:00,
2013-03-06 13:05:00,40.7,39.1,29.65,SSW,198,0.0,1.0,94,0.03,,,0.12,WUHU216DAVISVP2,2013-03-06 21:05:00,
2013-03-06 13:10:00,40.9,39.5,29.65,SSW,198,0.0,1.0,95,0.03,,,0.12,WUHU216DAVISVP2,2013-03-06 21:10:00,
2013-03-06 13:15:00,40.9,39.3,29.65,ENE,68,0.0,2.0,94,0.02,,,0.12,WUHU216DAVISVP2,2013-03-06 21:15:00,
2013-03-06 13:20:00,40.9,39.3,29.65,ENE,76,0.0,3.0,94,0.02,,,0.12,WUHU216DAVISVP2,2013-03-06 21:20:00,
2013-03-06 13:25:00,40.9,39.3,29.65,East,80,0.0,3.0,94,0.02,,,0.12,WUHU216DAVISVP2,2013-03-06 21:25:00,
2013-03-06 13:30:00,41.1,39.8,29.65,East,80,0.0,1.0,95,0.02,,,0.12,WUHU216DAVISVP2,2013-03-06 21:30:00,
2013-03-06 13:35:00,41.1,39.8,29.65,NE,51,0.0,2.0,95,0.01,,,0.12,WUHU216DAVISVP2,2013-03-06 21:35:00,
2013-03-06 13:40:00,41.1,39.5,29.65,NE,55,0.0,2.0,94,0.01,,,0.12,WUHU216DAVISVP2,2013-03-06 21:40:00,
2013-03-06 13:45:00,41.2,39.9,29.65,NE,55,0.0,2.0,95,0.01,,,0.12,WUHU216DAVISVP2,2013-03-06 21:45:00,
2013-03-06 13:50:00,41.2,39.8,29.66,ENE,57,0.0,2.0,95,0.00,,,0.12,WUHU216DAVISVP2,2013-03-06 21:50:00,
2013-03-06 13:55:00,41.3,39.9,29.66,ENE,57,1.0,2.0,95,0.00,,,0.12,WUHU216DAVISVP2,2013-03-06 21:55:00,
2013-03-06 14:00:00,41.4,40.0,29.66,NE,55,0.0,3.0,95,0.01,,,0.13,WUHU216DAVISVP2,2013-03-06 22:00:00,
2013-03-06 14:05:00,41.4,39.8,29.67,ENE,61,0.0,4.0,94,0.01,,,0.13,WUHU216DAVISVP2,2013-03-06 22:05:00,
2013-03-06 14:10:00,41.3,39.7,29.67,NE,40,0.0,4.0,94,0.01,,,0.13,WUHU216DAVISVP2,2013-03-06 22:10:00,
2013-03-06 14:15:00,41.4,40.0,29.67,NE,40,0.0,3.0,95,0.01,,,0.13,WUHU216DAVISVP2,2013-03-06 22:15:00,
2013-03-06 14:20:00,41.4,39.8,29.67,ENE,70,0.0,3.0,94,0.01,,,0.13,WUHU216DAVISVP2,2013-03-06 22:20:00,
2013-03-06 14:25:00,41.4,39.8,29.67,ENE,70,2.0,3.0,94,0.01,,,0.13,WUHU216DAVISVP2,2013-03-06 22:25:00,
2013-03-06 14:30:00,41.4,39.8,29.68,ENE,70,0.0,2.0,94,0.01,,,0.13,WUHU216DAVISVP2,2013-03-06 22:30:00,
2013-03-06 14:35:00,41.3,39.7,29.68,ENE,69,1.0,2.0,94,0.01,,,0.13,WUHU216DAVISVP2,2013-03-06 22:35:00,
2013-03-06 14:40:00,41.3,39.9,29.68,ENE,69,2.0,2.0,95,0.01,,,0.13,WUHU216DAVISVP2,2013-03-06 22:40:00,
2013-03-06 14:45:00,41.3,39.7,29.68,ENE,69,0.0,2.0,94,0.01,,,0.13,WUHU216DAVISVP2,2013-03-06 22:45:00,
2013-03-06 14:50:00,41.2,39.6,29.69,ENE,69,0.0,2.0,94,0.02,,,0.14,WUHU216DAVISVP2,2013-03-06 22:50:00,
2013-03-06 14:55:00,41.1,39.5,29.69,NNE,30,1.0,1.0,94,0.02,,,0.14,WUHU216DAVISVP2,2013-03-06 22:55:00,
2013-03-06 15:00:00,41.1,39.5,29.69,NNE,29,0.0,1.0,94,0.01,,,0.14,WUHU216DAVISVP2,2013-03-06 23:00:00,
2013-03-06 15:05:00,41.2,39.6,29.70,NNE,29,0.0,1.0,94,0.01,,,0.14,WUHU216DAVISVP2,2013-03-06 23:05:00,
2013-03-06 15:10:00,41.2,39.8,29.70,NNE,29,0.0,0.0,95,0.01,,,0.14,WUHU216DAVISVP2,2013-03-06 23:10:00,
2013-03-06 15:15:00,41.3,39.9,29.70,NNE,29,0.0,0.0,95,0.01,,,0.14,WUHU216DAVISVP2,2013-03-06 23:15:00,
2013-03-06 15:20:00,41.3,40.0,29.70,NNE,29,0.0,0.0,95,0.01,,,0.14,WUHU216DAVISVP2,2013-03-06 23:20:00,
2013-03-06 15:25:00,41.4,40.1,29.70,NNE,29,0.0,0.0,95,0.02,,,0.15,WUHU216DAVISVP2,2013-03-06 23:25:00,
2013-03-06 15:30:00,41.4,40.1,29.71,NNE,29,0.0,0.0,95,0.02,,,0.15,WUHU216DAVISVP2,2013-03-06 23:30:00,
2013-03-06 15:35:00,41.5,40.2,29.71,NNE,29,0.0,0.0,95,0.02,,,0.15,WUHU216DAVISVP2,2013-03-06 23:35:00,
2013-03-06 15:40:00,41.5,40.2,29.71,NNE,29,0.0,0.0,95,0.02,,,0.15,WUHU216DAVISVP2,2013-03-06 23:40:00,
2013-03-06 15:45:00,41.5,40.2,29.71,NNE,29,0.0,0.0,95,0.03,,,0.16,WUHU216DAVISVP2,2013-03-06 23:45:00,
2013-03-06 15:50:00,41.5,40.2,29.71,NNE,29,0.0,0.0,95,0.02,,,0.16,WUHU216DAVISVP2,2013-03-06 23:50:00,
2013-03-06 15:55:00,41.5,40.2,29.72,NNE,29,0.0,0.0,95,0.02,,,0.16,WUHU216DAVISVP2,2013-03-06 23:55:00,
2013-03-06 16:00:00,41.4,40.1,29.72,NNE,29,0.0,0.0,95,0.02,,,0.16,WUHU216DAVISVP2,2013-03-07 00:00:00,
2013-03-06 16:05:00,41.3,39.7,29.72,NNE,29,0.0,0.0,94,0.02,,,0.16,WUHU216DAVISVP2,2013-03-07 00:05:00,
2013-03-06 16:10:00,41.3,39.7,29.73,NNE,29,0.0,0.0,94,0.02,,,0.16,WUHU216DAVISVP2,2013-03-07 00:10:00,
2013-03-06 16:15:00,41.2,39.6,29.73,NNE,29,0.0,0.0,94,0.03,,,0.17,WUHU216DAVISVP2,2013-03-07 00:15:00,
2013-03-06 16:20:00,41.1,39.5,29.73,NNE,29,0.0,0.0,94,0.03,,,0.17,WUHU216DAVISVP2,2013-03-07 00:20:00,
2013-03-06 16:25:00,41.0,39.4,29.73,NNE,29,0.0,1.0,94,0.02,,,0.17,WUHU216DAVISVP2,2013-03-07 00:25:00,
2013-03-06 16:30:00,40.9,39.3,29.73,NNE,29,0.0,1.0,94,0.02,,,0.17,WUHU216DAVISVP2,2013-03-07 00:30:00,
2013-03-06 16:35:00,40.8,38.9,29.73,NE,47,0.0,1.0,93,0.02,,,0.17,WUHU216DAVISVP2,2013-03-07 00:35:00,
2013-03-06 16:40:00,40.7,38.8,29.74,NE,47,0.0,1.0,93,0.02,,,0.17,WUHU216DAVISVP2,2013-03-07 00:40:00,
2013-03-06 16:45:00,40.7,38.8,29.74,NE,47,1.0,2.0,93,0.01,,,0.17,WUHU216DAVISVP2,2013-03-07 00:45:00,
2013-03-06 16:50:00,40.5,38.6,29.74,ENE,60,0.0,2.0,93,0.02,,,0.18,WUHU216DAVISVP2,2013-03-07 00:50:00,
2013-03-06 16:55:00,40.4,38.5,29.74,ENE,60,0.0,2.0,93,0.02,,,0.18,WUHU216DAVISVP2,2013-03-07 00:55:00,
2013-03-06 17:00:00,40.3,38.1,29.74,NNE,32,0.0,2.0,92,0.02,,,0.18,WUHU216DAVISVP2,2013-03-07 01:00:00,
2013-03-06 17:05:00,40.2,38.3,29.74,NNE,32,0.0,2.0,93,0.02,,,0.18,WUHU216DAVISVP2,2013-03-07 01:05:00,
2013-03-06 17:10:00,40.2,38.3,29.75,ENE,68,0.0,1.0,93,0.02,,,0.18,WUHU216DAVISVP2,2013-03-07 01:10:00,
2013-03-06 17:15:00,40.1,38.2,29.75,ENE,68,0.0,1.0,93,0.02,,,0.19,WUHU216DAVISVP2,2013-03-07 01:15:00,
2013-03-06 17:20:00,40.0,38.1,29.75,ENE,68,0.0,1.0,93,0.02,,,0.19,WUHU216DAVISVP2,2013-03-07 01:20:00,
2013-03-06 17:25:00,40.0,38.1,29.75,ENE,68,0.0,0.0,93,0.02,,,0.19,WUHU216DAVISVP2,2013-03-07 01:25:00,
2013-03-06 17:30:00,39.8,37.9,29.76,ENE,68,0.0,0.0,93,0.03,,,0.20,WUHU216DAVISVP2,2013-03-07 01:30:00,
2013-03-06 17:35:00,39.7,38.1,29.76,ENE,68,0.0,0.0,94,0.03,,,0.20,WUHU216DAVISVP2,2013-03-07 01:35:00,
2013-03-06 17:40:00,39.7,38.1,29.76,ENE,68,0.0,1.0,94,0.03,,,0.20,WUHU216DAVISVP2,2013-03-07 01:40:00,
2013-03-06 17:45:00,39.6,38.0,29.76,ENE,68,0.0,2.0,94,0.02,,,0.20,WUHU216DAVISVP2,2013-03-07 01:45:00,
2013-03-06 17:50:00,39.5,37.9,29.76,ENE,68,0.0,2.0,94,0.02,,,0.20,WUHU216DAVISVP2,2013-03-07 01:50:00,
2013-03-06 17:55:00,39.5,37.9,29.76,ENE,68,0.0,0.0,94,0.03,,,0.21,WUHU216DAVISVP2,2013-03-07 01:55:00,
2013-03-06 18:00:00,39.5,37.9,29.77,ENE,68,0.0,1.0,94,0.03,,,0.21,WUHU216DAVISVP2,2013-03-07 02:00:00,
2013-03-06 18:05:00,39.3,37.7,29.77,ENE,68,0.0,1.0,94,0.04,,,0.22,WUHU216DAVISVP2,2013-03-07 02:05:00,
2013-03-06 18:10:00,39.3,37.7,29.76,NE,46,0.0,2.0,94,0.04,,,0.22,WUHU216DAVISVP2,2013-03-07 02:10:00,
2013-03-06 18:15:00,39.3,37.7,29.77,NE,46,0.0,2.0,94,0.03,,,0.22,WUHU216DAVISVP2,2013-03-07 02:15:00,
2013-03-06 18:20:00,39.3,38.0,29.77,NE,46,0.0,1.0,95,0.03,,,0.22,WUHU216DAVISVP2,2013-03-07 02:20:00,
2013-03-06 18:25:00,39.3,38.0,29.78,NE,46,0.0,1.0,95,0.04,,,0.23,WUHU216DAVISVP2,2013-03-07 02:25:00,
2013-03-06 18:30:00,39.2,37.9,29.78,NE,46,0.0,2.0,95,0.03,,,0.23,WUHU216DAVISVP2,2013-03-07 02:30:00,
2013-03-06 18:35:00,39.1,37.8,29.78,NNE,33,0.0,3.0,95,0.04,,,0.24,WUHU216DAVISVP2,2013-03-07 02:35:00,
2013-03-06 18:40:00,39.1,37.8,29.78,NNE,33,0.0,3.0,95,0.04,,,0.24,WUHU216DAVISVP2,2013-03-07 02:40:00,
2013-03-06 18:45:00,39.1,37.7,29.79,NNE,33,0.0,2.0,95,0.05,,,0.25,WUHU216DAVISVP2,2013-03-07 02:45:00,
2013-03-06 18:50:00,39.1,37.7,29.79,NNE,33,0.0,1.0,95,0.05,,,0.25,WUHU216DAVISVP2,2013-03-07 02:50:00,
2013-03-06 18:55:00,39.1,37.7,29.79,NNE,33,0.0,2.0,95,0.04,,,0.25,WUHU216DAVISVP2,2013-03-07 02:55:00,
2013-03-06 19:00:00,39.0,37.6,29.80,NNE,33,0.0,2.0,95,0.04,,,0.25,WUHU216DAVISVP2,2013-03-07 03:00:00,
2013-03-06 19:05:00,39.1,37.7,29.80,NNE,33,0.0,0.0,95,0.03,,,0.25,WUHU216DAVISVP2,2013-03-07 03:05:00,
2013-03-06 19:10:00,39.0,37.6,29.80,NNE,33,1.0,1.0,95,0.04,,,0.26,WUHU216DAVISVP2,2013-03-07 03:10:00,
2013-03-06 19:15:00,39.0,37.6,29.81,NNE,33,0.0,1.0,95,0.04,,,0.26,WUHU216DAVISVP2,2013-03-07 03:15:00,
2013-03-06 19:20:00,39.0,37.6,29.81,NNE,33,0.0,1.0,95,0.04,,,0.26,WUHU216DAVISVP2,2013-03-07 03:20:00,
2013-03-06 19:25:00,38.9,37.5,29.81,NNE,33,0.0,1.0,95,0.04,,,0.27,WUHU216DAVISVP2,2013-03-07 03:25:00,
2013-03-06 19:30:00,38.9,37.8,29.81,NNE,33,0.0,0.0,96,0.04,,,0.27,WUHU216DAVISVP2,2013-03-07 03:30:00,
2013-03-06 19:35:00,38.8,37.7,29.82,NNE,33,0.0,2.0,96,0.03,,,0.27,WUHU216DAVISVP2,2013-03-07 03:35:00,
2013-03-06 19:40:00,38.8,37.7,29.82,NNE,33,0.0,2.0,96,0.03,,,0.27,WUHU216DAVISVP2,2013-03-07 03:40:00,
2013-03-06 19:45:00,38.7,37.3,29.82,NNE,33,0.0,1.0,95,0.02,,,0.27,WUHU216DAVISVP2,2013-03-07 03:45:00,
2013-03-06 19:50:00,38.6,37.2,29.82,ENE,67,0.0,2.0,95,0.02,,,0.27,WUHU216DAVISVP2,2013-03-07 03:50:00,
2013-03-06 19:55:00,38.5,37.1,29.82,ENE,67,0.0,2.0,95,0.03,,,0.28,WUHU216DAVISVP2,2013-03-07 03:55:00,
2013-03-06 20:00:00,38.5,37.1,29.82,ENE,67,0.0,1.0,95,0.03,,,0.28,WUHU216DAVISVP2,2013-03-07 04:00:00,
2013-03-06 20:05:00,38.4,37.1,29.82,ENE,67,0.0,0.0,95,0.03,,,0.28,WUHU216DAVISVP2,2013-03-07 04:05:00,
2013-03-06 20:10:00,38.4,37.3,29.83,ENE,67,0.0,0.0,96,0.02,,,0.28,WUHU216DAVISVP2,2013-03-07 04:10:00,
2013-03-06 20:15:00,38.4,37.3,29.83,ENE,67,0.0,0.0,96,0.02,,,0.28,WUHU216DAVISVP2,2013-03-07 04:15:00,
2013-03-06 20:20:00,38.4,37.3,29.83,ENE,67,0.0,0.0,96,0.02,,,0.28,WUHU216DAVISVP2,2013-03-07 04:20:00,
2013-03-06 20:25:00,38.4,37.3,29.83,ENE,67,0.0,0.0,96,0.02,,,0.29,WUHU216DAVISVP2,2013-03-07 04:25:00,
2013-03-06 20:30:00,38.4,37.3,29.83,ENE,67,0.0,0.0,96,0.02,,,0.29,WUHU216DAVISVP2,2013-03-07 04:30:00,
2013-03-06 20:35:00,38.4,37.3,29.83,ENE,67,0.0,0.0,96,0.02,,,0.29,WUHU216DAVISVP2,2013-03-07 04:35:00,
2013-03-06 20:40:00,38.4,37.3,29.83,ENE,67,0.0,0.0,96,0.03,,,0.30,WUHU216DAVISVP2,2013-03-07 04:40:00,
2013-03-06 20:45:00,38.4,37.3,29.83,ENE,67,0.0,0.0,96,0.03,,,0.30,WUHU216DAVISVP2,2013-03-07 04:45:00,
2013-03-06 20:50:00,38.4,37.3,29.84,ENE,67,0.0,0.0,96,0.03,,,0.30,WUHU216DAVISVP2,2013-03-07 04:50:00,
2013-03-06 20:55:00,38.4,37.3,29.84,ENE,67,0.0,0.0,96,0.02,,,0.30,WUHU216DAVISVP2,2013-03-07 04:55:00,
2013-03-06 21:00:00,38.4,37.3,29.84,ENE,67,0.0,0.0,96,0.02,,,0.30,WUHU216DAVISVP2,2013-03-07 05:00:00,
2013-03-06 21:05:00,38.4,37.3,29.84,ENE,67,0.0,0.0,96,0.03,,,0.31,WUHU216DAVISVP2,2013-03-07 05:05:00,
2013-03-06 21:10:00,38.4,37.3,29.85,ENE,67,0.0,0.0,96,0.03,,,0.31,WUHU216DAVISVP2,2013-03-07 05:10:00,
2013-03-06 21:15:00,38.4,37.3,29.85,ENE,67,0.0,0.0,96,0.04,,,0.32,WUHU216DAVISVP2,2013-03-07 05:15:00,
2013-03-06 21:20:00,38.4,37.3,29.85,ENE,67,0.0,0.0,96,0.04,,,0.32,WUHU216DAVISVP2,2013-03-07 05:20:00,
2013-03-06 21:25:00,38.4,37.6,29.85,ENE,67,0.0,0.0,97,0.03,,,0.32,WUHU216DAVISVP2,2013-03-07 05:25:00,
2013-03-06 21:30:00,38.4,37.6,29.85,ENE,67,0.0,0.0,97,0.03,,,0.32,WUHU216DAVISVP2,2013-03-07 05:30:00,
2013-03-06 21:35:00,38.4,37.6,29.85,ENE,67,0.0,0.0,97,0.03,,,0.32,WUHU216DAVISVP2,2013-03-07 05:35:00,
2013-03-06 21:40:00,38.4,37.6,29.85,ENE,67,0.0,0.0,97,0.02,,,0.32,WUHU216DAVISVP2,2013-03-07 05:40:00,
2013-03-06 21:45:00,38.4,37.6,29.85,ENE,67,1.0,1.0,97,0.02,,,0.32,WUHU216DAVISVP2,2013-03-07 05:45:00,
2013-03-06 21:50:00,38.4,37.6,29.86,ENE,67,0.0,1.0,97,0.02,,,0.32,WUHU216DAVISVP2,2013-03-07 05:50:00,
2013-03-06 21:55:00,38.5,37.7,29.86,ENE,67,0.0,1.0,97,0.02,,,0.32,WUHU216DAVISVP2,2013-03-07 05:55:00,
2013-03-06 22:00:00,38.5,37.7,29.86,ENE,67,0.0,1.0,97,0.02,,,0.32,WUHU216DAVISVP2,2013-03-07 06:00:00,
2013-03-06 22:05:00,38.5,37.7,29.87,ENE,67,0.0,0.0,97,0.01,,,0.32,WUHU216DAVISVP2,2013-03-07 06:05:00,
2013-03-06 22:10:00,38.6,37.8,29.86,ENE,67,0.0,2.0,97,0.01,,,0.32,WUHU216DAVISVP2,2013-03-07 06:10:00,
2013-03-06 22:15:00,38.6,37.8,29.87,ENE,67,0.0,2.0,97,0.00,,,0.32,WUHU216DAVISVP2,2013-03-07 06:15:00,
2013-03-06 22:20:00,38.7,37.9,29.87,ENE,67,0.0,0.0,97,0.00,,,0.32,WUHU216DAVISVP2,2013-03-07 06:20:00,
2013-03-06 22:25:00,38.7,37.9,29.87,ENE,67,0.0,0.0,97,0.00,,,0.32,WUHU216DAVISVP2,2013-03-07 06:25:00,
2013-03-06 22:30:00,38.7,37.9,29.87,ENE,67,0.0,1.0,97,0.00,,,0.32,WUHU216DAVISVP2,2013-03-07 06:30:00,
2013-03-06 22:35:00,38.8,38.0,29.88,ENE,67,0.0,1.0,97,0.00,,,0.32,WUHU216DAVISVP2,2013-03-07 06:35:00,
2013-03-06 22:40:00,38.8,38.0,29.88,ENE,67,0.0,0.0,97,0.00,,,0.32,WUHU216DAVISVP2,2013-03-07 06:40:00,
2013-03-06 22:45:00,38.9,38.1,29.88,ENE,67,0.0,0.0,97,0.00,,,0.32,WUHU216DAVISVP2,2013-03-07 06:45:00,
2013-03-06 22:50:00,38.9,38.1,29.88,ENE,67,0.0,1.0,97,0.00,,,0.32,WUHU216DAVISVP2,2013-03-07 06:50:00,
2013-03-06 22:55:00,39.0,38.2,29.88,ENE,67,0.0,1.0,97,0.00,,,0.32,WUHU216DAVISVP2,2013-03-07 06:55:00,
2013-03-06 23:00:00,39.0,38.2,29.88,ENE,67,0.0,0.0,97,0.00,,,0.32,WUHU216DAVISVP2,2013-03-07 07:00:00,
2013-03-06 23:05:00,39.1,38.3,29.88,ENE,67,0.0,0.0,97,0.00,,,0.32,WUHU216DAVISVP2,2013-03-07 07:05:00,
2013-03-06 23:10:00,39.1,38.3,29.88,ENE,67,0.0,0.0,97,0.00,,,0.32,WUHU216DAVISVP2,2013-03-07 07:10:00,
2013-03-06 23:15:00,39.1,38.3,29.88,ENE,67,0.0,0.0,97,0.00,,,0.32,WUHU216DAVISVP2,2013-03-07 07:15:00,
2013-03-06 23:20:00,39.1,38.3,29.89,ENE,67,0.0,1.0,97,0.00,,,0.32,WUHU216DAVISVP2,2013-03-07 07:20:00,
2013-03-06 23:25:00,39.2,38.4,29.89,ENE,67,0.0,1.0,97,0.00,,,0.32,WUHU216DAVISVP2,2013-03-07 07:25:00,
2013-03-06 23:30:00,39.1,38.3,29.89,ENE,67,0.0,1.0,97,0.00,,,0.32,WUHU216DAVISVP2,2013-03-07 07:30:00,
2013-03-06 23:35:00,39.1,38.3,29.89,ENE,67,0.0,1.0,97,0.00,,,0.32,WUHU216DAVISVP2,2013-03-07 07:35:00,
2013-03-06 23:40:00,39.1,38.3,29.89,ENE,67,0.0,0.0,97,0.00,,,0.32,WUHU216DAVISVP2,2013-03-07 07:40:00,
2013-03-06 23:45:00,39.2,38.4,29.89,ENE,67,0.0,1.0,97,0.00,,,0.32,WUHU216DAVISVP2,2013-03-07 07:45:00,
2013-03-06 23:50:00,39.2,38.4,29.89,ENE,67,0.0,1.0,97,0.00,,,0.32,WUHU216DAVISVP2,2013-03-07 07:50:00,
2013-03-06 23:55:00,39.2,38.4,29.89,ENE,67,0.0,0.0,97,0.00,,,0.32,WUHU216DAVISVP2,2013-03-07 07:55:00,